Terug naar catalogus

COSMOS 256

ActiefMilitairLEO
NORAD 3576·PAYLOAD·🇷🇺 Russia

Gelanceerd Nov 30, 1968 vanaf Plesetsk Cosmodrome

Loading…

Volgende Passages (komende 24 uur)

TLE

VersSource: Space-Track

Epoch: Sep 14, 2026, 02:20 UTC

1 03576U 68106A   26257.09746116  .00000248  00000-0  69447-3 0  9995
2 03576  74.0504 317.9333 0034439 302.1952  75.4368 13.16884263777407

Volg COSMOS 256 in realtime met AllMySat

Download on the App Store